This demonstration page uses our WeatherBlox Daily Observations layout. Learn more.

Left ArrowRight Arrow

39.92423, -83.80882

Hourly Observations for March 3, 2021

Temp ( °F °C ) Dew Point ( °F °C ) Humidity (%) Winds ( mph kmh ) Pressure ( in mb ) Visibility ( mi km ) Precip ( " mm )
12:56 am 00:56 Clear 30 -1.1 19 -7.2 64 64 SW 3 6 30.09 1019 10 16 N/A
1:56 am 01:56 Clear 28 -2.2 20 -6.7 72 72 W 5 7 30.10 1019 10 16 N/A
2:56 am 02:56 Clear 28 -2.2 20 -6.7 72 72 SW 6 9 30.08 1019 10 16 N/A
3:56 am 03:56 Clear 28 -2.2 19 -7.2 69 69 SW 6 9 30.06 1018 10 16 N/A
4:56 am 04:56 Clear 29 -1.7 19 -7.2 66 66 SW 6 9 30.06 1018 10 16 N/A
5:56 am 05:56 Clear 28 -2.2 20 -6.7 72 72 SW 6 9 30.06 1018 10 16 N/A
6:56 am 06:56 Clear 28 -2.2 21 -6.1 75 75 SW 7 11 30.06 1018 10 16 N/A
7:56 am 07:56 Sunny 31 -0.6 22 -5.6 69 69 SSW 7 11 30.07 1018 10 16 N/A
8:56 am 08:56 Sunny 36 2.2 22 -5.6 57 57 SW 9 15 30.07 1018 10 16 N/A
9:56 am 09:56 Sunny 41 5 26 -3.3 55 55 SW 13 20 30.05 1018 10 16 N/A
10:56 am 10:56 Sunny 47 8.3 30 -1.1 52 52 SW 14 22 30.03 1017 10 16 N/A
11:56 am 11:56 Sunny 51 10.6 33 0.6 50 50 WSW 8 13 30.01 1016 10 16 N/A
12:56 pm 12:56 Sunny 54 12.2 33 0.6 45 45 WSW 18 30 29.99 1016 10 16 N/A
1:56 pm 13:56 Sunny 57 13.9 34 1.1 42 42 W 12 19 29.96 1015 10 16 N/A
2:56 pm 14:56 Sunny 58 14.4 34 1.1 41 41 WSW 14 22 29.94 1014 10 16 N/A
3:56 pm 15:56 Sunny 59 15 35 1.7 41 41 WSW 15 24 29.95 1014 10 16 N/A
4:56 pm 16:56 Sunny 58 14.4 36 2.2 44 44 WNW 15 24 29.96 1015 10 16 N/A
5:56 pm 17:56 Sunny 54 12.2 37 2.8 53 53 W 12 19 29.98 1015 10 16 N/A
6:56 pm 18:56 Clear 49 9.4 36 2.2 61 61 NW 7 11 30.01 1016 10 16 N/A
7:56 pm 19:56 Clear 45 7.2 37 2.8 74 74 WNW 7 11 30.03 1017 10 16 N/A
8:56 pm 20:56 Clear 42 5.6 37 2.8 82 82 W 8 13 30.03 1017 10 16 N/A
9:56 pm 21:56 Clear 42 5.6 37 2.8 82 82 W 9 15 30.04 1017 10 16 N/A
10:56 pm 22:56 Clear 43 6.1 37 2.8 80 80 WNW 9 15 30.06 1018 10 16 N/A
11:56 pm 23:56 Clear 39 3.9 33 0.6 79 79 NNW 9 15 30.07 1018 10 16 N/A

Powered by AerisWeather